Regional Weather Roundup
Issued by NWS Albany, NY

Home | Current Version | Previous Version | Text Only | Print | Product List | Glossary On
Versions: 1 2 3 4 5 6 7 8 9 10 11 12 13 14 15 16 17 18 19 20 21 22 23 24 25 26 27 28 29 30 31 32 33 34 35 36 37 38 39 40 41 42 43 44 45 46 47 48 49 50
000
ASUS41 KALY 131910
RWRALY

NEW YORK STATE HOURLY WEATHER ROUNDUP
NATIONAL WEATHER SERVICE ALBANY NY
200 PM EST SAT FEB 13 2016

NOTE: "FAIR" INDICATES FEW OR NO CLOUDS BELOW 12,000 FEET WITH NO
SIGNIFICANT WEATHER AND/OR NO OBSTRUCTIONS TO VISIBILITY.

NYZ032-033-038>043-046>054-057>066-NYZ062>081-132000-
EAST


CITY           SKY/WX    TMP DP  RH WIND       PRES   REMARKS
ALBANY         PTSUNNY    4 -14  43 NW22G37   30.13R WCI -18
GLENS FALLS    MOSUNNY    6 -19  30 W17G26    30.05R WCI -13
POUGHKEEPSIE   MOSUNNY   16 -14  25 W22G36    30.07R WCI  -2
NEWBURGH       MOSUNNY   12 -11  34 NW25G39   30.06R WCI  -8
MONTGOMERY     MOSUNNY   12 -13  31 W22G31    30.08R WCI  -7
WHITE PLAINS   MOSUNNY   14 -10  33 NW32G47   30.02R WCI  -7
ISLIP          MOSUNNY   18  -5  36 W28G40    30.01R WCI  -1
NEW YORK CITY  MOSUNNY   19  -7  31 W26G37    30.08R WCI   1
CENTRAL PARK   SUNNY     18 -11  27 NW17G33   30.08R WCI   3
$$

NYZ005>009-017-018-044>046-055-056-132000-
CENTRAL


CITY           SKY/WX    TMP DP  RH WIND       PRES   REMARKS
FULTON         HVY SNOW  -2 -10  69 NW14      30.26R VSB 1/4 WCI -21
SYRACUSE       SNOW      -3  -9  75 NW14      30.24S VSB 1/2 WCI -22
ROME           PTSUNNY   -5 -16  59 NW23G31   30.22S HAZE    WCI -30
ELMIRA         CLOUDY     2 -12  52 W13G24    30.21R WCI -15
BINGHAMTON     CLOUDY    -3 -16  53 NW22G31   30.07R WCI -27
MONTICELLO     PTSUNNY    3 -11  51 NW23G29   30.02R WCI -19
$$

NYZ026>034-041>043-132000-
NORTH


CITY           SKY/WX    TMP DP  RH WIND       PRES   REMARKS
WATERTOWN      SUNNY    -10 -24  50 NW10      30.29R WCI -29
FORT DRUM      NOT AVBL
MASSENA        CLOUDY   -12 -26  49 W14       30.25R WCI -34
SARANAC LAKE   CLOUDY   -16 -25  63 VRB6G16   29.95R HAZE    WCI -31
PLATTSBURGH    CLOUDY    -6 -24  41 W12G21    30.12R WCI -25
$$

NYZ001>004-010>016-019>021-132000-
WEST


CITY           SKY/WX    TMP DP  RH WIND       PRES   REMARKS
NIAGARA FALLS  PTSUNNY    2 -12  52 NW17G23   30.33F WCI -18
BUFFALO        PTSUNNY    1 -14  49 W14       30.31F WCI -17
DUNKIRK        CLOUDY     5  -5  63 W14G26    30.34F WCI -12
JAMESTOWN      CLOUDY     1  -6  71 NW18G29   30.18S WCI -19
WELLSVILLE     CLOUDY     0 -13  54 NW32G40   30.10S BLWGSNOWWCI -27
ROCHESTER      LGT SNOW   0 -10  63 NW21G29   30.30S BLWGSNOWWCI -22
PENN YAN       CLOUDY     0 -15  49 NW17G26   30.23S WCI -21
$$

             KEY
       WCI = WIND CHILL INDEX
       VSB = VISIBILITY
       HX  = HEAT INDEX
$$



USA.gov is the U.S. government's official web portal to all federal, state and local government web resources and services.